K4FB Weather Reports


time (UTC)temp
F
wind
direction
speed
knots
gust
knots
rain 1hr
in
rain 24hr
in
rain mn
in
humidity
%
barometer
mb
20260903164007 92 141 0.0 1.7 0.00 1.13 0.00 74 1015.8
20260903163510 92 140 0.0 0.9 0.00 1.13 0.00 75 1015.8
20260903163023 91 75 0.0 1.7 0.00 1.13 0.00 74 1016.0
20260903162511 91 196 0.0 1.7 0.00 1.13 0.00 76 1015.9
20260903162007 91 161 0.0 1.7 0.00 1.13 0.00 77 1016.1
20260903161529 90 83 0.0 1.7 0.00 1.13 0.00 77 1016.2
20260903161011 90 103 0.0 1.7 0.00 1.13 0.00 76 1016.1
20260903160517 89 99 0.0 0.9 0.00 1.13 0.00 77 1016.2
20260903160030 89 122 0.0 0.9 0.00 1.13 0.00 79 1016.4
20260903155512 88 23 0.0 0.9 0.00 1.13 0.00 78 1016.3
20260903155015 88 166 0.0 0.9 0.00 1.13 0.00 80 1016.3
20260903154516 88 180 0.0 0.0 0.00 1.13 0.00 80 1016.4
20260903154010 87 171 0.0 0.0 0.00 1.13 0.00 81 1016.4
20260903153510 87 130 0.0 0.0 0.00 1.13 0.00 81 1016.3
20260903153020 86 111 0.0 0.0 0.00 1.13 0.00 82 1016.3
20260903152510 86 107 0.0 0.9 0.00 1.13 0.00 83 1016.4
20260903152012 86 44 0.0 0.9 0.00 1.13 0.00 83 1016.5
20260903151527 85 146 0.0 0.0 0.00 1.13 0.00 84 1016.5
20260903151006 85 79 0.0 0.0 0.00 1.13 0.00 83 1016.4
20260903150513 85 175 0.0 0.0 0.00 1.13 0.00 84 1016.6
20260903150038 85 178 0.0 0.0 0.00 1.13 0.00 84 1016.6
20260903145517 85 164 0.0 0.0 0.00 1.13 0.00 85 1016.5
20260903145008 85 204 0.0 0.0 0.00 1.13 0.00 87 1016.3
20260903144530 84 133 0.0 0.0 0.00 1.13 0.00 87 1016.3
20260903144015 84 72 0.0 0.0 0.00 1.13 0.00 88 1016.5
20260903143507 84 61 0.0 0.0 0.00 1.13 0.00 88 1016.5
20260903143018 83 84 0.0 0.0 0.00 1.13 0.00 89 1016.4
20260903142507 83 97 0.0 0.0 0.00 1.13 0.00 89 1016.4
20260903142012 83 76 0.0 1.7 0.00 1.13 0.00 89 1016.4
20260903141526 82 68 0.0 1.7 0.00 1.13 0.00 91 1016.4
20260903141010 82 103 0.0 0.9 0.00 1.13 0.00 91 1016.4
20260903140514 81 130 0.0 0.9 0.00 1.13 0.00 91 1016.3
20260903140022 81 171 0.0 0.9 0.00 1.13 0.00 91 1016.4
20260903135511 81 142 0.0 0.9 0.00 1.13 0.00 92 1016.5
20260903135013 81 82 0.0 0.9 0.00 1.13 0.00 92 1016.4
20260903134538 81 92 0.0 0.9 0.00 1.13 0.00 92 1016.4
20260903134011 81 78 0.0 0.0 0.00 1.13 0.00 93 1016.3
20260903133520 80 98 0.0 0.0 0.00 1.13 0.00 93 1016.3
20260903133031 80 55 0.0 0.0 0.00 1.13 0.00 94 1016.1
20260903132519 80 97 0.0 0.9 0.00 1.13 0.00 94 1016.2
20260903132012 80 92 0.0 0.9 0.00 1.13 0.00 94 1016.2
20260903131521 80 120 0.0 0.9 0.00 1.13 0.00 95 1016.1
20260903131012 79 130 0.0 0.0 0.00 1.13 0.00 95 1016.1
20260903130511 79 116 0.0 0.9 0.00 1.13 0.00 95 1016.1
20260903130004 79 96 0.0 0.9 0.00 1.13 0.00 95 1016.0
20260903125504 79 146 0.0 0.0 0.00 1.13 0.00 95 1015.9
20260903125003 79 161 0.0 0.0 0.00 1.13 0.00 95 1015.9
20260903124504 79 161 0.0 0.0 0.00 1.13 0.00 95 1015.9
20260903124003 79 161 0.0 0.0 0.00 1.13 0.00 95 1016.0
20260903123503 79 165 0.0 0.0 0.00 1.13 0.00 95 1016.0
20260903123028 78 165 0.0 0.0 0.00 1.13 0.00 95 1016.0
20260903122504 78 161 0.0 0.0 0.00 1.13 0.00 95 1016.0
20260903122006 78 161 0.0 0.0 0.00 1.13 0.00 95 1015.9
20260903121520 78 154 0.0 0.0 0.00 1.13 0.00 95 1015.9
20260903121010 78 200 0.0 0.0 0.00 1.13 0.00 95 1015.9
20260903120504 78 200 0.0 0.0 0.00 1.13 0.00 95 1015.8
20260903120017 78 200 0.0 0.0 0.00 1.13 0.00 1015.6
20260903115508 78 200 0.0 0.0 0.00 1.13 0.00 1015.4
20260903115003 78 200 0.0 0.0 0.00 1.13 0.00 95 1015.4
20260903114508 78 236 0.0 0.0 0.00 1.13 0.00 95 1015.3
20260903114004 77 266 0.0 0.0 0.00 1.13 0.00 95 1015.2
20260903113502 77 360 0.0 0.0 0.00 1.13 0.00 95 1015.1
20260903113020 77 360 0.0 0.0 0.00 1.13 0.00 95 1015.0
20260903112504 77 360 0.0 0.0 0.00 1.13 0.00 95 1015.0
20260903112005 77 360 0.0 0.0 0.00 1.13 0.00 95 1014.9
20260903111509 77 360 0.0 0.0 0.00 1.13 0.00 95 1014.9
20260903111004 77 360 0.0 0.0 0.00 1.13 0.00 95 1014.8
20260903110507 77 360 0.0 0.0 0.00 1.13 0.00 95 1014.8
20260903110028 77 352 0.0 0.0 0.00 1.13 0.00 95 1014.6
20260903105504 77 352 0.0 0.0 0.00 1.13 0.00 95 1014.6
20260903105007 77 352 0.0 0.0 0.00 1.13 0.00 94 1014.4
20260903104530 77 352 0.0 0.0 0.00 1.13 0.00 95 1014.5
20260903104011 77 352 0.0 0.0 0.00 1.13 0.00 95 1014.4
20260903103503 77 352 0.0 0.0 0.00 1.13 0.00 95 1014.4
20260903103008 78 24 0.0 0.0 0.00 1.13 0.00 95 1014.3
20260903102504 78 66 0.0 0.0 0.00 1.13 0.00 95 1014.2
20260903102003 78 62 0.0 0.0 0.00 1.13 0.00 95 1014.1
20260903101516 77 61 0.0 0.0 0.00 1.13 0.00 95 1014.2
20260903101007 77 78 0.0 0.0 0.00 1.13 0.00 95 1014.2
20260903100507 77 68 0.0 0.0 0.00 1.13 0.00 95 1014.2
20260903100023 77 59 0.0 0.0 0.00 1.13 0.00 95 1014.1
20260903095507 77 80 0.0 0.9 0.00 1.13 0.00 95 1014.3
20260903095011 77 63 0.0 0.9 0.00 1.13 0.00 95 1014.3
20260903094508 77 67 0.0 0.9 0.00 1.13 0.00 95 1014.2
20260903094014 77 63 0.0 0.9 0.00 1.13 0.00 95 1014.2
20260903093512 77 105 0.0 0.9 0.00 1.13 0.00 95 1014.2
20260903093048 77 51 0.0 0.9 0.00 1.13 0.00 95 1014.2
20260903092504 77 112 0.0 0.9 0.00 1.13 0.00 95 1014.3
20260903092004 77 40 0.0 0.0 0.00 1.13 0.00 95 1014.3
20260903091509 77 72 0.0 0.0 0.00 1.13 0.00 95 1014.2
20260903091005 77 73 0.0 0.0 0.00 1.13 0.00 94 1014.1
20260903090510 77 88 0.0 0.0 0.00 1.13 0.00 94 1014.1
20260903090026 77 104 0.0 0.0 0.00 1.13 0.00 94 1014.1
20260903085508 77 104 0.0 0.0 0.00 1.13 0.00 94 1014.1
20260903085007 77 97 0.0 0.0 0.00 1.13 0.00 94 1014.1
20260903084529 77 96 0.0 0.0 0.00 1.13 0.00 94 1014.1
20260903084013 77 96 0.0 0.0 0.00 1.13 0.00 94 1014.1
20260903083512 77 103 0.0 0.0 0.00 1.13 0.00 94 1014.0
20260903083019 77 108 0.0 0.0 0.00 1.13 0.00 1014.1
20260903082509 77 89 0.0 0.0 0.00 1.13 0.00 94 1014.1
20260903082017 77 104 0.0 0.0 0.00 1.13 0.00 94 1014.1
20260903081516 77 96 0.0 0.0 0.00 1.13 0.00 94 1014.2
20260903081003 77 67 0.0 0.0 0.00 1.13 0.00 94 1014.3
20260903080504 77 88 0.0 0.0 0.00 1.13 0.00 94 1014.3
20260903080013 77 61 0.0 0.0 0.00 1.13 0.00 94 1014.3
20260903075508 77 77 0.0 0.0 0.00 1.13 0.00 94 1014.3
20260903075005 77 69 0.0 0.0 0.00 1.13 0.00 94 1014.3
20260903074524 77 88 0.0 0.0 0.00 1.13 0.00 94 1014.3
20260903074004 77 88 0.0 0.0 0.00 1.13 0.00 94 1014.3
20260903073508 77 88 0.0 0.0 0.00 1.13 0.00 94 1014.4
20260903073029 77 88 0.0 0.0 0.00 1.13 0.00 94 1014.5
20260903072512 77 88 0.0 0.0 0.00 1.13 0.00 94 1014.5
20260903072007 77 88 0.0 0.0 0.00 1.13 0.00 1014.4
20260903071527 77 88 0.0 0.0 0.00 1.13 0.00 94 1014.5
20260903071015 77 88 0.0 0.0 0.00 1.13 0.00 94 1014.6
20260903070506 78 88 0.0 0.0 0.00 1.13 0.00 94 1014.6
20260903070028 78 88 0.0 0.0 0.00 1.13 0.00 94 1014.7
20260903065504 78 88 0.0 0.0 0.00 1.13 0.00 94 1014.7
20260903065008 78 86 0.0 0.0 0.00 1.13 0.00 94 1014.6
20260903064515 78 85 0.0 0.0 0.00 1.13 0.00 94 1014.7
20260903064008 78 97 0.0 0.0 0.00 1.13 0.00 94 1014.8
20260903063508 78 98 0.0 0.0 0.00 1.13 0.00 94 1014.8
20260903063026 78 98 0.0 0.0 0.00 1.13 0.00 94 1014.7
20260903062512 78 97 0.0 0.0 0.00 1.13 0.00 94 1014.7
20260903062012 78 112 0.0 0.0 0.00 1.13 0.00 94 1014.9
20260903061529 78 101 0.0 0.9 0.00 1.13 0.00 94 1014.9
20260903061011 78 98 0.0 0.9 0.00 1.13 0.00 94 1014.7
20260903060516 78 84 0.0 0.0 0.00 1.13 0.00 94 1014.8
20260903060034 78 53 0.0 0.0 0.00 1.13 0.00 94 1014.9
20260903055518 78 75 0.0 0.0 0.00 1.13 0.00 94 1014.9
20260903055013 78 75 0.0 0.0 0.00 1.13 0.00 1014.9
20260903054523 78 75 0.0 0.0 0.00 1.13 0.00 1015.0
20260903054007 78 77 0.0 0.0 0.00 1.13 0.00 94 1014.9
20260903053506 78 77 0.0 0.0 0.00 1.13 0.00 94 1015.0
20260903053024 78 77 0.0 0.0 0.00 1.13 0.00 94 1015.1
20260903052511 78 77 0.0 0.0 0.00 1.13 0.00 94 1015.2
20260903052014 78 78 0.0 0.0 0.00 1.13 0.00 94 1015.4
20260903051520 78 78 0.0 0.0 0.00 1.13 0.00 94 1015.4
20260903051025 78 86 0.0 0.0 0.00 1.13 0.00 94 1015.3
20260903050519 78 87 0.0 0.0 0.00 1.13 0.00 94 1015.4
20260903050019 78 97 0.0 0.0 0.00 1.13 0.00 94 1015.4
20260903045511 78 97 0.0 0.0 0.00 1.13 0.00 94 1015.5
20260903045014 78 97 0.0 0.0 0.00 1.13 0.00 94 1015.6
20260903044536 78 98 0.0 0.0 0.00 1.13 0.00 94 1015.6
20260903044010 78 99 0.0 0.0 0.00 1.13 0.00 93 1015.6
20260903043514 78 99 0.0 0.0 0.00 1.13 0.00 93 1015.8
20260903043023 78 100 0.0 0.0 0.00 1.13 0.00 93 1015.8
20260903042507 78 100 0.0 0.0 0.00 1.13 0.00 1015.8
20260903042008 78 98 0.0 0.0 0.00 1.13 0.00 93 1015.9
20260903041528 78 98 0.0 0.0 0.00 1.13 0.00 93 1015.9
20260903041012 78 86 0.0 0.0 0.00 1.13 0.00 93 1015.9
20260903040509 78 101 0.0 0.0 0.00 1.13 0.00 93 1015.9
20260903040030 78 104 0.0 0.0 0.00 1.13 0.00 93 1016.0
20260903035512 79 104 0.0 0.0 0.00 1.13 1.13 93 1016.0
20260903035017 79 98 0.0 0.0 0.00 1.13 1.13 93 1016.0
20260903034532 79 100 0.0 0.9 0.00 1.13 1.13 93 1015.9
20260903034015 79 86 0.0 1.7 0.00 1.13 1.13 94 1016.0
20260903033519 79 123 0.0 1.7 0.00 1.13 1.13 1015.8
20260903033031 78 76 0.0 1.7 0.00 1.13 1.13 94 1015.9
20260903032503 78 69 0.0 0.9 0.00 1.13 1.13 94 1015.8
20260903032004 78 63 0.0 0.0 0.00 1.13 1.13 94 1015.9
20260903031520 78 84 0.0 0.0 0.00 1.13 1.13 94 1016.0
20260903031009 78 82 0.0 0.0 0.00 1.13 1.13 94 1015.9
20260903030508 78 38 0.0 0.0 0.00 1.13 1.13 94 1015.9
20260903030007 78 36 0.0 0.0 0.00 1.13 1.13 94 1016.0
20260903025505 78 5 0.0 0.0 0.00 1.13 1.13 94 1016.0
20260903025003 78 5 0.0 0.0 0.00 1.13 1.13 94 1016.2
20260903024509 78 5 0.0 0.0 0.00 1.13 1.13 93 1016.1
20260903024004 78 5 0.0 0.0 0.00 1.13 1.13 93 1016.1
20260903023504 78 5 0.0 0.0 0.00 1.13 1.13 93 1016.1
20260903023006 78 5 0.0 0.0 0.00 1.13 1.13 93 1016.0
20260903022504 78 5 0.0 0.0 0.00 1.13 1.13 93 1016.0
20260903022007 78 5 0.0 0.0 0.00 1.13 1.13 93 1016.1
20260903021508 78 5 0.0 0.0 0.00 1.13 1.13 93 1016.2
20260903021004 78 5 0.0 0.0 0.00 1.13 1.13 93 1016.2
20260903020505 78 5 0.0 0.0 0.00 1.13 1.13 93 1016.1
20260903020028 78 5 0.0 0.0 0.00 1.13 1.13 93 1016.1
20260903015504 78 5 0.0 0.0 0.00 1.13 1.13 93 1016.1
20260903015002 78 33 0.0 0.0 0.00 1.13 1.13 93 1016.0
20260903014506 78 33 0.0 0.0 0.00 1.13 1.13 93 1015.9
20260903014002 78 30 0.0 0.0 0.00 1.13 1.13 93 1015.8
20260903013503 78 30 0.0 0.9 0.00 1.13 1.13 93 1015.6
20260903013010 78 9 0.0 0.9 0.00 1.13 1.13 93 1015.5
20260903012503 78 19 0.0 0.0 0.00 1.13 1.13 93 1015.5
20260903012006 78 10 0.0 0.0 0.00 1.13 1.13 93 1015.5
20260903011514 78 32 0.0 0.0 0.00 1.13 1.13 93 1015.5
20260903011007 78 5 0.0 0.0 0.00 1.13 1.13 93 1015.4
20260903010508 78 28 0.0 0.0 0.00 1.13 1.13 93 1015.3
20260903010010 78 11 0.0 1.7 0.00 1.13 1.13 93 1015.4
20260903005509 78 352 0.0 1.7 0.00 1.13 1.13 92 1015.4
20260903005012 78 340 0.0 0.9 0.00 1.13 1.13 92 1015.3
20260903004513 78 350 0.0 1.7 0.00 1.13 1.13 92 1015.2
20260903004008 78 344 0.0 1.7 0.00 1.13 1.13 92 1015.1
20260903003505 78 9 0.0 1.7 0.00 1.13 1.13 92 1014.9
20260903003010 78 5 0.0 1.7 0.00 1.13 1.13 92 1014.9
20260903002503 78 306 0.0 2.6 0.00 1.13 1.13 92 1014.9
20260903002005 78 327 0.0 2.6 0.01 1.13 1.13 92 1014.9
20260903001520 78 343 0.0 2.6 0.01 1.13 1.13 92 1015.0
20260903001003 78 341 0.0 1.7 0.01 1.13 1.13 1015.2
20260903000507 78 350 0.0 1.7 0.01 1.13 1.13 92 1015.2
20260903000021 78 35 0.0 0.0 0.01 1.13 1.13 92 1015.3
20260902235510 78 262 0.0 0.0 0.01 1.13 1.13 92 1015.3
20260902235002 78 260 0.0 0.0 0.01 1.13 1.13 92 1015.3
20260902234521 78 260 0.0 0.0 0.01 1.13 1.13 92 1015.1
20260902234011 78 260 0.0 0.9 0.01 1.13 1.13 92 1014.9
20260902233503 78 260 0.0 0.9 0.02 1.13 1.13 91 1014.9
20260902233012 78 259 0.0 0.9 0.03 1.13 1.13 92 1014.9
20260902232505 78 283 0.0 0.9 0.03 1.13 1.13 91 1015.0
20260902232004 78 265 0.0 0.9 0.02 1.12 1.12 91 1015.0
20260902231516 78 300 0.0 0.9 0.03 1.12 1.12 91 1015.1
20260902231005 78 239 0.0 0.9 0.04 1.12 1.12 91 1015.2
20260902230505 78 236 0.0 1.7 0.05 1.12 1.12 91 1015.1
20260902230013 78 238 0.0 2.6 0.06 1.12 1.12 91 1015.1
20260902225506 78 208 0.0 2.6 0.07 1.12 1.12 91 1015.0
20260902225012 78 188 0.0 0.9 0.08 1.12 1.12 91 1015.1
20260902224522 78 309 0.0 0.0 0.08 1.12 1.12 91 1015.0
20260902224003 78 311 0.0 0.0 0.08 1.12 1.12 90 1015.0
20260902223507 78 311 0.0 0.0 0.08 1.11 1.11 90 1015.0
20260902223030 78 311 0.0 0.0 0.07 1.10 1.10 90 1015.0
20260902222513 78 229 0.0 0.9 0.07 1.10 1.10 90 1015.1
20260902222004 78 229 0.0 1.7 0.09 1.10 1.10 90 1015.1
20260902221524 78 225 0.0 2.6 0.14 1.09 1.09 89 1015.1
20260902221003 78 217 0.0 2.6 0.26 1.08 1.08 90 1015.1
20260902220506 78 226 0.0 0.9 0.49 1.07 1.07 90 1014.8
20260902220015 78 313 0.0 0.0 0.83 1.05 1.05 89 1014.9
20260902215511 78 313 0.0 0.0 1.04 1.04 1.04 89 1014.7
20260902215011 77 319 0.0 0.9 1.04 1.04 1.04 89 1014.5
20260902214521 77 319 0.0 0.9 1.04 1.04 1.04 88 1014.4
20260902214008 77 281 0.0 2.6 1.04 1.04 1.04 88 1014.5
20260902213510 77 287 0.0 4.3 1.03 1.03 1.03 88 1014.8
20260902213010 77 324 0.0 4.3 1.03 1.03 1.03 88 1014.3
20260902212508 77 325 0.0 3.5 1.03 1.03 1.03 86 1014.3
20260902212010 77 319 0.0 7.0 1.01 1.01 1.01 86 1014.3
20260902211530 77 325 0.9 11.3 0.95 0.95 0.95 85 1014.3
20260902211006 78 318 3.5 12.2 0.82 0.82 0.82 84 1014.5
20260902210510 78 71 5.2 15.6 0.58 0.58 0.58 82 1014.8
20260902210012 80 10 7.8 19.1 0.23 0.23 0.23 79 1015.1
20260902205503 82 52 6.1 19.1 0.00 0.00 0.00 76 1014.6
20260902205004 86 350 12.2 19.1 0.00 0.00 0.00 72 1014.4
20260902204517 90 346 9.6 19.1 0.00 0.00 0.00 67 1014.2
20260902204010 93 34 6.1 14.8 0.00 0.00 0.00 63 1014.0
20260902203505 95 26 4.3 8.7 0.00 0.00 0.00 60 1013.8
20260902203020 95 20 2.6 7.0 0.00 0.00 0.00 61 1013.8
20260902202512 95 120 0.0 5.2 0.00 0.00 0.00 61 1013.8
20260902202011 94 13 1.7 6.1 0.00 0.00 0.00 61 1013.8
20260902201515 93 46 0.0 7.0 0.00 0.00 0.00 65 1013.9
20260902201016 92 78 2.6 7.0 0.00 0.00 0.00 66 1013.9
20260902200515 92 71 0.0 4.3 0.00 0.00 0.00 64 1013.9
20260902200018 92 76 0.0 2.6 0.00 0.00 0.00 63 1014.0
20260902195507 92 80 0.9 7.0 0.00 0.00 0.00 63 1014.1
20260902195011 93 5 1.7 9.6 0.00 0.00 0.00 62 1014.2
20260902194515 94 53 3.5 9.6 0.00 0.00 0.00 62 1014.3
20260902194008 94 5 0.9 4.3 0.00 0.00 0.00 62 1014.3
20260902193508 94 342 0.0 4.3 0.00 0.00 0.00 59 1014.3
20260902193023 95 348 1.7 5.2 0.00 0.00 0.00 58 1014.3
20260902192503 96 58 1.7 7.8 0.00 0.00 0.00 60 1014.4
20260902192007 96 49 0.0 7.8 0.00 0.00 0.00 61 1014.5
20260902191529 96 64 1.7 7.8 0.00 0.00 0.00 60 1014.7
20260902191011 96 65 0.9 7.8 0.00 0.00 0.00 60 1014.7
20260902190510 96 5 1.7 6.1 0.00 0.00 0.00 61 1014.8
20260902190027 96 5 0.9 7.0 0.00 0.00 0.00 64 1014.8
20260902185518 95 42 2.6 7.0 0.00 0.00 0.00 65 1014.9
20260902185004 94 64 1.7 7.0 0.00 0.00 0.00 63 1015.0
20260902184529 94 340 1.7 5.2 0.00 0.00 0.00 61 1015.2
20260902184015 95 5 1.7 5.2 0.00 0.00 0.00 63 1015.3
20260902183507 95 345 1.7 5.2 0.00 0.00 0.00 63 1015.3
20260902183019 95 360 0.9 9.6 0.00 0.00 0.00 64 1015.3
20260902182509 95 26 0.0 9.6 0.00 0.00 0.00 64 1015.6
20260902182010 95 344 0.9 8.7 0.00 0.00 0.00 65 1015.6
20260902181524 94 35 0.0 7.8 0.00 0.00 0.00 65 1015.6
20260902181009 94 61 2.6 7.8 0.00 0.00 0.00 65 1015.7
20260902180514 93 50 0.0 9.6 0.00 0.00 0.00 68 1015.8
20260902180027 92 84 3.5 9.6 0.00 0.00 0.00 68 1015.9
20260902175507 92 344 0.0 3.5 0.00 0.00 0.00 66 1015.9
20260902175010 92 53 0.0 5.2 0.00 0.00 0.00 69 1016.0
20260902174529 92 39 0.9 5.2 0.00 0.00 0.00 70 1016.1
20260902174016 92 26 0.0 5.2 0.00 0.00 0.00 70 1016.0
20260902173509 92 349 0.0 2.6 0.00 0.00 0.00 70 1016.0
20260902173034 91 144 0.0 4.3 0.00 0.00 0.00 73 1016.1
20260902172519 91 51 0.0 4.3 0.00 0.00 0.00 71 1016.2
20260902172009 90 17 0.0 7.0 0.00 0.00 0.00 73 1016.3
20260902171522 90 40 0.0 7.0 0.00 0.00 0.00 72 1016.4
20260902171007 91 317 0.0 5.2 0.00 0.00 0.00 72 1016.4
20260902170511 90 346 0.0 5.2 0.00 0.00 0.00 76 1016.4
20260902170022 89 44 0.0 4.3 0.00 0.00 0.00 74 1016.5
20260902165513 88 84 0.0 5.2 0.00 0.00 0.00 75 1016.7
20260902165011 88 295 0.0 7.0 0.00 0.00 0.00 74 1016.7
20260902164518 88 333 2.6 7.0 0.00 0.00 0.00 74 1016.8